Location: Unspecified
(35.6961°N, 0.0000°E)
Time: 17:43:45
(UTC+00:00)

Vanguard 2 Rocket - Pass Details

Date: 03 June 2019
Orbit: 554 x 3326 km, 32.9° (Epoch: 19 June)

Event Time Altitude Azimuth Distance (km) Brightness Sun altitude
Rises 07:34:23 0° 282° (WNW) 7,265 11.0 31.9°
Reaches altitude 10° 07:39:37 10° 279° (W) 6,093 10.7 32.9°
Maximum altitude 07:57:17 60° 206° (SSW) 2,613 9.5 36.5°
Drops below altitude 10° 08:07:58 10° 130° (SE) 3,857 10.8 38.7°
Sets 08:10:32 0° 126° (SE) 4,543 11.1 39.2°
